[[{"header":{"parameterUnit":"m.s-1","parameterCategory":1,"la1":30.2991,"la2":30.254,"lo1":-89.0895,"lo2":-89.0444,"dy":0.0017,"dx":0.0017,"nx":28,"ny":28,"refTime":"2024-08-19T09:00:00:Z","depth":0,"parameterNumber":2,"parameterNumberName":"U-component_of_WINDS"},"data":[0,0,0,0,0,0,0,0,0,0,0,0,0,0,0,0,0,0,0,0,0,0,0,0,0,0,0,0,0,0,0,0,0,0,0,0,0,0,0,0,0,0,0,0,0,0,0,0,0,0,0,0,0,0,0,0,0,0,-1.4541,-1.4541,0,-1.461,-1.4611,-1.4612,-1.4535,-1.4532,-1.4529,-1.4526,-1.4598,-1.4603,-1.4608,0,0,0,0,0,0,0,0,0,0,0,0,0,-1.4342,-1.4346,-1.4541,-1.4542,-1.4542,-1.461,-1.4611,-1.4612,-1.4535,-1.4531,-1.4528,-1.4525,-1.4597,-1.4602,-1.4608,0,0,0,0,0,0,0,0,0,0,0,0,0,-1.4422,-1.4348,-1.454,-1.4512,-1.451,-1.461,-1.4611,-1.4612,-1.4536,-1.4531,-1.4527,-1.4523,-1.4595,-1.4602,-1.4609,-1.474,0,0,-1.463,-1.4633,0,0,0,0,0,0,0,0,-1.4418,-1.4429,-1.4515,-1.4514,-1.4512,-1.4559,-1.4567,-1.4655,-1.4537,-1.4526,-1.4526,-1.4521,-1.4589,-1.4596,-1.4619,-1.4743,-1.4747,-1.4631,-1.4635,-1.4638,-1.464,0,0,0,0,0,0,0,-1.4412,-1.4426,-1.4568,-1.4517,-1.4515,-1.4496,-1.4503,-1.4584,-1.4581,-1.4527,-1.4521,-1.453,-1.4587,-1.4612,-1.462,-1.4748,-1.4631,-1.4637,-1.4641,-1.4644,-1.4983,-1.4988,0,0,0,0,0,0,-1.441,-1.4422,-1.4566,-1.457,-1.4453,-1.4503,-1.4511,-1.4549,-1.458,-1.4581,-1.4534,-1.4527,-1.4603,-1.4612,-1.4622,-1.4779,-1.4638,-1.4645,-1.4649,-1.4979,-1.4984,-1.499,0,0,0,0,0,0,-1.4406,-1.4423,-1.4563,-1.4495,-1.4511,-1.4511,-1.4555,-1.4552,-1.4577,-1.4586,-1.4585,-1.456,-1.46,-1.4613,-1.4711,-1.478,-1.4648,-1.4654,-1.4973,-1.498,-1.4987,-1.5093,0,0,0,0,0,0,-1.44,-1.4422,-1.4472,-1.4496,-1.4515,-1.4651,-1.4559,-1.4557,-1.4589,-1.458,-1.461,-1.4611,-1.4597,-1.4701,-1.4718,-1.4787,-1.466,-1.4967,-1.4976,-1.4985,-1.5083,-1.5103,-1.5119,0,0,0,0,0,-1.4394,-1.4499,-1.4475,-1.4493,-1.4577,-1.4655,-1.4666,-1.4647,-1.4595,-1.4646,-1.4651,-1.461,-1.4769,-1.4712,-1.4731,-1.4803,-1.4962,-1.4974,-1.4984,-1.5075,-1.5099,-1.5119,0,0,0,0,0,0,-1.4484,-1.4502,-1.4475,-1.4592,-1.4623,-1.4642,-1.4705,-1.4673,-1.472,-1.4709,-1.4684,-1.4692,-1.4797,-1.4809,-1.4745,-1.4932,-1.4857,-1.4873,-1.492,-1.4943,-1.4961,-1.4956,-1.4665,0,0,0,0,0,-1.4517,-1.4579,-1.4591,-1.4693,-1.471,-1.4705,-1.4738,-1.4721,-1.4752,-1.4765,-1.4777,-1.4809,-1.4866,-1.4905,-1.4958,-1.5083,-1.5089,-1.5142,-1.516,-1.5175,-1.5189,-1.5257,-1.5281,-1.5025,-1.5025,-1.5025,0,0,-1.4587,-1.4605,-1.4645,-1.4712,-1.4733,-1.4798,-1.4716,-1.4788,-1.4836,-1.4776,-1.487,-1.4881,-1.4914,-1.5027,-1.5078,-1.5041,-1.5261,-1.5189,-1.5201,-1.5207,-1.5271,-1.5295,-1.5317,-1.5033,-1.5031,-1.503,0,0,-1.4748,-1.4767,-1.4854,-1.4878,-1.4911,-1.4907,-1.4928,-1.4952,-1.4957,-1.5051,-1.5007,-1.5063,-1.5162,-1.5188,-1.5215,-1.5385,-1.5349,-1.5402,-1.5498,-1.5565,-1.5585,-1.5603,-1.5665,-1.5687,-1.5416,-1.5416,-1.5416,0,-1.4831,-1.4927,-1.4903,-1.4979,-1.501,-1.4956,-1.5045,-1.5068,-1.5118,-1.5141,-1.5098,-1.5222,-1.5241,-1.5359,-1.5401,-1.5423,-1.5447,-1.54,-1.5584,-1.5601,-1.5618,-1.5676,-1.57,-1.5422,-1.5422,-1.5421,-1.542,0,-1.5028,-1.5095,-1.5161,-1.521,-1.5248,-1.533,-1.5319,-1.536,-1.5339,-1.534,-1.5436,-1.5457,-1.5513,-1.554,-1.552,-1.5656,-1.5632,-1.5587,-1.5513,-1.5649,-1.5704,-1.5726,-1.5432,-1.5429,-1.5427,-1.5426,0,0,-1.525,-1.5284,-1.5309,-1.533,-1.5363,-1.5415,-1.5493,-1.5548,-1.5585,-1.562,-1.5687,-1.5771,-1.5729,-1.5759,-1.5742,-1.58,-1.5935,-1.5748,-1.5748,-1.5783,-1.6087,-1.6122,-1.6148,-1.591,-1.5915,-1.5918,-1.6084,0,-1.5413,-1.555,-1.553,-1.5662,-1.5724,-1.5674,-1.5743,-1.5771,-1.5773,-1.5826,-1.5828,-1.5889,-1.5829,-1.5846,-1.5901,-1.5907,-1.5996,-1.5894,-1.5973,-1.5976,-1.5968,-1.6177,-1.6214,-1.6371,-1.6106,-1.6109,-1.6112,0,-1.5621,-1.5664,-1.5803,-1.5826,-1.5851,-1.5913,-1.5962,-1.6013,-1.6043,-1.604,-1.6074,-1.6046,-1.6125,-1.6047,-1.6157,-1.6088,-1.6119,-1.6126,-1.6132,-1.614,-1.6054,-1.6193,-1.642,-1.6444,-1.6145,-1.6142,-1.614,0,-1.5771,-1.5863,-1.5958,-1.5978,-1.6007,-1.6052,-1.6066,-1.6092,-1.6126,-1.6168,-1.619,-1.6241,-1.627,-1.631,-1.6297,-1.6241,-1.641,-1.6331,-1.6411,-1.6412,-1.6451,-1.6449,-1.6688,-1.6467,-1.6467,-1.6467,-1.6466,0,-1.5956,-1.6044,-1.6026,-1.6085,-1.6181,-1.6157,-1.6252,-1.626,-1.6284,-1.6343,-1.6302,-1.6359,-1.6337,-1.6392,-1.6382,-1.6475,-1.6488,-1.6489,-1.6485,-1.6494,-1.6494,-1.6515,-1.6504,-1.6473,-1.6471,-1.647,-1.6469,0,-1.6141,-1.6133,-1.6233,-1.6252,-1.6258,-1.6329,-1.6345,-1.64,-1.6398,-1.6474,-1.649,-1.6488,-1.6551,-1.6541,-1.6611,-1.6604,-1.672,-1.6703,-1.6711,-1.6707,-1.6789,-1.6782,-1.7052,-1.7086,-1.6841,-1.6844,-1.6846,0,-1.6261,-1.6327,-1.6352,-1.6389,-1.6406,-1.6466,-1.65,-1.6479,-1.6517,-1.6556,-1.6607,-1.6666,-1.6712,-1.6815,-1.682,-1.6873,-1.6858,-1.6949,-1.6866,-1.6872,-1.6861,-1.6859,-1.6865,-1.6966,-1.6969,-1.6971,-1.6973,0,-1.6475,-1.6467,-1.6518,-1.6569,-1.6611,-1.6649,-1.6683,-1.6716,-1.6697,-1.6742,-1.6806,-1.6842,-1.6913,-1.6973,-1.7022,-1.7037,-1.7003,-1.6998,-1.702,-1.703,-1.7033,-1.7034,-1.6757,-1.6993,-1.6991,-1.699,-1.6988,-1.6988,-1.6632,-1.6688,-1.6715,-1.6773,-1.6797,-1.683,-1.6882,-1.6887,-1.694,-1.6996,-1.698,-1.7052,-1.708,-1.7144,-1.7164,-1.722,-1.7187,-1.7218,-1.7226,-1.7235,-1.7245,-1.7022,-1.7229,-1.7229,-1.7228,-1.7227,-1.7227,0,-1.6845,-1.6859,-1.6913,-1.6962,-1.7009,-1.6971,-1.7006,-1.7048,-1.7112,-1.7141,-1.7187,-1.7261,-1.7318,-1.7327,-1.7381,-1.7425,-1.7411,-1.7441,-1.7438,-1.7442,-1.7271,-1.7248,-1.7451,-1.7451,-1.7451,-1.7451,-1.7451,-1.7451,-1.6961,-1.7055,-1.705,-1.7155,-1.7169,-1.7239,-1.7263,-1.7294,-1.7316,-1.74,-1.7448,-1.7453,-1.7474,-1.7529,-1.758,-1.7581,-1.7604,-1.764,-1.7636,-1.7476,-1.7454,-1.7433,-1.7411,-1.7645,-1.7645,-1.7802,-1.7803,-1.7804]},{"header":{"parameterUnit":"m.s-1","parameterCategory":1,"la1":30.2991,"la2":30.254,"lo1":-89.0895,"lo2":-89.0444,"dy":0.0017,"dx":0.0017,"nx":28,"ny":28,"refTime":"2024-08-19T09:00:00:Z","depth":0,"parameterNumber":3,"parameterNumberName":"V-component_of_WINDS"},"data":[0,0,0,0,0,0,0,0,0,0,0,0,0,0,0,0,0,0,0,0,0,0,0,0,0,0,0,0,0,0,0,0,0,0,0,0,0,0,0,0,0,0,0,0,0,0,0,0,0,0,0,0,0,0,0,0,0,0,-3.4384,-3.4384,0,-3.4443,-3.4443,-3.4444,-3.4405,-3.4403,-3.4401,-3.44,-3.4456,-3.4459,-3.4463,0,0,0,0,0,0,0,0,0,0,0,0,0,-3.4233,-3.4236,-3.4384,-3.4384,-3.4385,-3.4443,-3.4443,-3.4444,-3.4405,-3.4403,-3.4401,-3.4399,-3.4455,-3.4459,-3.4463,0,0,0,0,0,0,0,0,0,0,0,0,0,-3.4296,-3.4237,-3.4383,-3.4373,-3.4372,-3.4443,-3.4444,-3.4444,-3.4406,-3.4403,-3.44,-3.4398,-3.4454,-3.4459,-3.4463,-3.4546,0,0,-3.4478,-3.448,0,0,0,0,0,0,0,0,-3.4292,-3.4301,-3.4373,-3.4373,-3.4373,-3.4414,-3.4411,-3.4478,-3.4406,-3.4393,-3.44,-3.4397,-3.4444,-3.445,-3.4466,-3.4549,-3.4551,-3.4478,-3.4481,-3.4483,-3.4485,0,0,0,0,0,0,0,-3.4288,-3.4298,-3.4407,-3.4375,-3.4374,-3.4364,-3.437,-3.4424,-3.4433,-3.4394,-3.4391,-3.4399,-3.4443,-3.4462,-3.4467,-3.4552,-3.4478,-3.4482,-3.4485,-3.4487,-3.4705,-3.4708,0,0,0,0,0,0,-3.4285,-3.4295,-3.4405,-3.4409,-3.4325,-3.4368,-3.4375,-3.4403,-3.4432,-3.4434,-3.4401,-3.4397,-3.4455,-3.4462,-3.4469,-3.4568,-3.4483,-3.4488,-3.449,-3.4702,-3.4706,-3.4709,0,0,0,0,0,0,-3.4282,-3.4295,-3.4403,-3.4351,-3.4364,-3.4374,-3.4406,-3.4406,-3.4424,-3.4438,-3.4439,-3.4419,-3.4453,-3.4463,-3.4528,-3.4569,-3.449,-3.4494,-3.4699,-3.4703,-3.4707,-3.4765,0,0,0,0,0,0,-3.4278,-3.4294,-3.4327,-3.4352,-3.4367,-3.4461,-3.4409,-3.4409,-3.4433,-3.4428,-3.4454,-3.4456,-3.4452,-3.4521,-3.4532,-3.4574,-3.4498,-3.4695,-3.4701,-3.4706,-3.476,-3.4771,-3.4781,0,0,0,0,0,-3.4272,-3.434,-3.4329,-3.4342,-3.4408,-3.4464,-3.4472,-3.4467,-3.4437,-3.4469,-3.4477,-3.4455,-3.4563,-3.4528,-3.454,-3.4584,-3.4692,-3.4699,-3.4705,-3.4755,-3.4769,-3.4781,0,0,0,0,0,0,-3.4318,-3.4343,-3.4331,-3.4409,-3.4435,-3.4457,-3.4497,-3.4482,-3.4516,-3.451,-3.4501,-3.4507,-3.4575,-3.4586,-3.4547,-3.4666,-3.4623,-3.4632,-3.4656,-3.4669,-3.468,-3.4675,-3.4502,0,0,0,0,0,-3.4337,-3.4381,-3.4401,-3.4468,-3.4481,-3.4487,-3.4511,-3.4506,-3.4531,-3.4542,-3.4555,-3.4579,-3.4619,-3.4645,-3.4682,-3.4762,-3.4766,-3.4798,-3.4808,-3.4817,-3.4825,-3.4867,-3.4881,-3.473,-3.473,-3.473,0,0,-3.4377,-3.4396,-3.4424,-3.4477,-3.4496,-3.4541,-3.4497,-3.4546,-3.4579,-3.4548,-3.4611,-3.4622,-3.4648,-3.4721,-3.4754,-3.4732,-3.4868,-3.4826,-3.4832,-3.4835,-3.4875,-3.489,-3.4902,-3.4735,-3.4734,-3.4733,0,0,-3.4472,-3.4492,-3.4549,-3.457,-3.46,-3.4604,-3.4618,-3.4643,-3.4649,-3.4712,-3.469,-3.4728,-3.4797,-3.4817,-3.4836,-3.4939,-3.4919,-3.4951,-3.5006,-3.5047,-3.5059,-3.507,-3.5106,-3.5119,-3.4959,-3.496,-3.496,0,-3.4517,-3.4585,-3.458,-3.4632,-3.4655,-3.4632,-3.4689,-3.4709,-3.4749,-3.4765,-3.4741,-3.4827,-3.4843,-3.492,-3.4945,-3.4962,-3.4976,-3.4948,-3.5058,-3.5069,-3.5078,-3.5112,-3.5126,-3.4963,-3.4963,-3.4962,-3.4962,0,-3.4638,-3.4686,-3.4729,-3.477,-3.4798,-3.4852,-3.4855,-3.4884,-3.4876,-3.4881,-3.4945,-3.4964,-3.5005,-3.5023,-3.5015,-3.5098,-3.5084,-3.506,-3.5016,-3.5096,-3.5128,-3.5141,-3.4968,-3.4967,-3.4966,-3.4965,0,0,-3.4762,-3.4801,-3.4817,-3.4835,-3.4867,-3.4903,-3.4956,-3.4996,-3.5021,-3.505,-3.5093,-3.5151,-3.5129,-3.5151,-3.5145,-3.5181,-3.5261,-3.5152,-3.5153,-3.5171,-3.5353,-3.537,-3.5385,-3.5249,-3.5251,-3.5253,-3.535,0,-3.4858,-3.4952,-3.495,-3.5036,-3.5079,-3.5058,-3.5104,-3.5127,-3.5134,-3.5171,-3.5178,-3.522,-3.5187,-3.52,-3.5236,-3.5244,-3.5297,-3.5237,-3.5287,-3.5289,-3.528,-3.5402,-3.5421,-3.5511,-3.5363,-3.5365,-3.5366,0,-3.4983,-3.5017,-3.5108,-3.5134,-3.5152,-3.5193,-3.523,-3.5266,-3.5293,-3.5295,-3.532,-3.5308,-3.536,-3.5317,-3.5387,-3.5347,-3.5367,-3.5374,-3.5378,-3.5381,-3.5332,-3.5408,-3.554,-3.5553,-3.5386,-3.5384,-3.5383,0,-3.5063,-3.5132,-3.5195,-3.5212,-3.5243,-3.5273,-3.5287,-3.5311,-3.5336,-3.5368,-3.5383,-3.5421,-3.5441,-3.5469,-3.5468,-3.5436,-3.5539,-3.5495,-3.5541,-3.5542,-3.5563,-3.5561,-3.5699,-3.5579,-3.5578,-3.5578,-3.5578,0,-3.517,-3.5226,-3.5232,-3.527,-3.5332,-3.5329,-3.539,-3.5401,-3.5423,-3.5462,-3.5446,-3.5483,-3.5479,-3.5517,-3.5516,-3.5574,-3.5583,-3.5586,-3.5585,-3.5587,-3.5586,-3.5599,-3.5592,-3.5582,-3.5581,-3.558,-3.558,0,-3.5269,-3.5276,-3.5343,-3.5368,-3.5376,-3.542,-3.5441,-3.5477,-3.5483,-3.5533,-3.5545,-3.5553,-3.5596,-3.5598,-3.5647,-3.5646,-3.5717,-3.571,-3.5709,-3.5707,-3.5752,-3.5748,-3.5902,-3.5922,-3.5789,-3.5791,-3.5792,0,-3.5336,-3.5379,-3.541,-3.5436,-3.5452,-3.5494,-3.552,-3.5518,-3.5545,-3.5578,-3.561,-3.5652,-3.5685,-3.5754,-3.5764,-3.5801,-3.5794,-3.5845,-3.5799,-3.58,-3.5793,-3.579,-3.5794,-3.5854,-3.5855,-3.5857,-3.5858,0,-3.5455,-3.5456,-3.5494,-3.5533,-3.5565,-3.5595,-3.5623,-3.5645,-3.5647,-3.5677,-3.5722,-3.5748,-3.5799,-3.584,-3.5876,-3.5889,-3.5873,-3.5872,-3.5885,-3.5887,-3.5884,-3.5885,-3.5732,-3.5868,-3.5867,-3.5867,-3.5866,-3.5866,-3.5539,-3.5576,-3.5603,-3.5646,-3.5668,-3.5695,-3.573,-3.5741,-3.5778,-3.582,-3.5817,-3.5866,-3.5891,-3.5938,-3.5954,-3.5992,-3.5974,-3.5992,-3.5996,-3.6001,-3.6005,-3.5879,-3.5998,-3.5998,-3.5998,-3.5998,-3.5997,0,-3.5656,-3.5672,-3.5712,-3.5753,-3.5786,-3.5771,-3.5801,-3.583,-3.5873,-3.5899,-3.5932,-3.5983,-3.6023,-3.6036,-3.6075,-3.6102,-3.6096,-3.6112,-3.6109,-3.6112,-3.6019,-3.6004,-3.6117,-3.6117,-3.6117,-3.6116,-3.6116,-3.6116,-3.572,-3.5782,-3.5786,-3.5858,-3.5874,-3.5923,-3.5942,-3.5966,-3.5986,-3.6044,-3.6078,-3.6087,-3.6107,-3.6147,-3.6182,-3.6185,-3.6199,-3.6219,-3.6218,-3.6131,-3.6119,-3.6108,-3.6093,-3.6222,-3.6222,-3.6308,-3.6309,-3.6309]}]]